C/2018 N2 ( ASASSN )

Japanese version
Home page
Updated on April 25, 2020

---------------------------------------------------------------------

* Profile

Discovery Date July 7, 2018
Magnitude 16.4 mag
Discoverer All-Sky Automated Survey for Supernovae (ASASSN) program

* Pictures

* Orbital Elements

Epoch 2019 Nov. 13.0 TT = JDT 2458800.5
T 2019 Nov. 10.96133 TT                                 Rudenko
q   3.1246382            (2000.0)            P               Q
z  -0.0000498      Peri.   24.39594     +0.78558467     -0.45744754
 +/-0.0000003      Node    25.25926     +0.27011616     -0.35227825
e   1.0001557      Incl.   77.53196     +0.55668122     +0.81648134
From 3142 observations 2018 July 10-2020 Mar. 16, mean residual 0".4.

* Finding Charts

* Magnitudes Graph

        m1 = 4.7 + 5 log d + 10.0 log r(t + 70)

---------------------------------------------------------------------

The orbital elements are published on M.P.E.C. 2020-F67.
The charts are made with StellaNavigator Ver.10 (AstroArts).
The magnitudes graphs are made with Comet for Windows.

---------------------------------------------------------------------

Copyright(C) Seiichi Yoshida (comet@aerith.net). All rights reserved.